period_start,C,m1,H,J0,J1,J2,J3,J4,J5,JA,JB,JC,JD,JJ,JK,JN,#
2014-06-01 00:04:08,0.02,0.48,0.00,22.49,26.87,29.35,9.52,39.50,1005.88,2041.97,3288.76,3187.13,3467.25,500.70,493.02,22.03,0000 0000 0000 0000 000000
2014-06-01 00:09:09,0.03,0.48,0.00,22.49,26.87,29.36,9.52,39.60,1005.88,2041.95,3287.85,3186.84,3466.80,500.32,492.53,22.07,0000 0000 0000 0000 000000
2014-06-01 00:14:10,0.04,0.48,0.00,22.49,26.86,29.35,9.47,39.37,1005.89,2041.95,3287.07,3186.10,3466.08,499.28,491.49,22.11,0000 0000 0000 0000 000000
2014-06-01 00:19:11,-0.00,0.48,0.00,22.48,26.86,29.35,9.52,39.58,1005.91,2041.94,3286.85,3186.00,3465.98,499.99,492.27,22.15,0000 0000 0000 0000 000000
2014-06-01 00:24:12,0.02,0.48,0.00,22.47,26.85,29.35,9.51,39.63,1005.91,2041.92,3286.12,3185.97,3465.94,499.99,492.27,22.19,0000 0000 0000 0000 000000
2014-06-01 00:29:14,0.01,0.48,0.00,22.47,26.85,29.34,9.46,39.57,1005.88,2041.94,3286.01,3185.93,3465.63,499.30,491.58,22.23,0000 0000 0000 0000 000000
2014-06-01 00:34:14,0.03,0.48,0.00,22.47,26.85,29.35,9.54,39.53,1005.89,2041.93,3286.00,3185.37,3465.08,500.07,492.47,22.28,0000 0000 0000 0000 000000
2014-06-01 00:39:15,0.01,0.48,0.00,22.47,26.85,29.35,9.50,39.41,1005.88,2041.97,3285.91,3185.19,3465.03,499.71,491.91,22.32,0000 0000 0000 0000 000000
2014-06-01 00:44:16,0.01,0.49,0.00,22.47,26.85,29.35,9.55,39.48,1005.88,2041.95,3285.40,3185.03,3465.00,500.53,492.86,22.36,0000 0000 0000 0000 000000
2014-06-01 00:49:17,0.00,0.49,0.00,22.46,26.85,29.35,9.50,39.52,1005.87,2041.97,3285.04,3185.00,3465.00,499.74,492.11,22.40,0000 0000 0000 0000 000000
2014-06-01 00:54:18,-0.00,0.49,0.00,22.46,26.85,29.33,9.49,39.42,1005.89,2041.98,3285.00,3185.00,3465.00,500.23,492.43,22.44,0000 0000 0000 0000 000000
2014-06-01 00:59:19,0.01,0.49,0.00,22.45,26.84,29.32,9.47,39.37,1005.90,2041.98,3284.95,3184.99,3464.82,500.29,492.63,22.49,0000 0000 0000 0000 000000
2014-06-01 01:04:20,0.04,0.49,0.00,22.46,26.84,29.32,9.50,39.52,1005.90,2041.97,3284.22,3184.68,3464.12,500.18,492.47,22.53,0000 0000 0000 0000 000000
2014-06-01 01:09:21,0.01,0.49,0.00,22.46,26.83,29.33,9.47,39.44,1005.87,2041.96,3283.99,3184.06,3464.00,499.54,491.94,22.57,0000 0000 0000 0000 000000
2014-06-01 01:14:22,0.02,0.49,0.00,22.45,26.83,29.31,9.49,39.46,1005.87,2041.99,3283.40,3184.00,3463.91,499.84,492.23,22.61,0000 0000 0000 0000 000000
2014-06-01 01:19:23,0.01,0.49,0.00,22.44,26.82,29.31,9.53,39.53,1005.81,2041.97,3283.00,3183.96,3463.21,500.12,492.51,22.65,0000 0000 0000 0000 000000
2014-06-01 01:24:24,0.00,0.49,0.00,22.44,26.82,29.32,9.46,39.62,1005.62,2041.98,3282.98,3183.89,3463.05,499.61,492.00,22.69,0000 0000 0000 0000 000000
2014-06-01 01:29:25,0.03,0.49,0.00,22.44,26.82,29.32,9.46,39.43,1005.54,2041.98,3282.45,3183.32,3463.00,500.08,492.53,22.74,0000 0000 0000 0000 000000
2014-06-01 01:34:26,0.01,0.49,0.00,22.44,26.82,29.32,9.45,39.38,1005.69,2041.99,3282.00,3183.01,3462.75,499.93,492.22,22.78,0000 0000 0000 0000 000000
2014-06-01 01:39:27,0.01,0.49,0.00,22.44,26.82,29.33,9.54,39.42,1005.81,2041.99,3281.77,3182.99,3462.23,500.08,492.46,22.82,0000 0000 0000 0000 000000
2014-06-01 01:44:29,0.01,0.49,0.00,22.44,26.82,29.31,9.50,39.38,1005.86,2041.99,3281.21,3182.94,3462.05,499.64,492.15,22.86,0000 0000 0000 0000 000000
2014-06-01 01:49:30,0.03,0.50,0.00,22.44,26.82,29.31,9.48,39.65,1005.85,2041.99,3280.95,3182.15,3462.00,500.18,492.47,22.90,0000 0000 0000 0000 000000
2014-06-01 01:54:31,0.03,0.50,0.00,22.44,26.82,29.29,9.51,39.59,1005.69,2041.99,3280.19,3181.99,3461.43,499.89,492.18,22.95,0000 0000 0000 0000 000000
2014-06-01 01:59:33,0.00,0.50,0.00,22.44,26.82,29.30,9.55,39.59,1005.61,2041.99,3279.99,3181.96,3461.01,500.06,492.24,22.99,0000 0000 0000 0000 000000
2014-06-01 02:04:34,0.01,0.50,0.00,22.44,26.82,29.30,9.48,39.44,1005.78,2041.99,3279.89,3181.80,3461.00,499.52,491.87,23.03,0000 0000 0000 0000 000000
2014-06-01 02:09:35,0.04,0.50,0.00,22.44,26.81,29.31,9.43,39.46,1005.86,2041.99,3279.11,3181.12,3460.95,500.03,492.46,23.07,0000 0000 0000 0000 000000
2014-06-01 02:14:36,0.01,0.50,0.00,22.44,26.81,29.31,9.50,39.38,1005.87,2041.99,3279.00,3181.00,3460.44,500.03,492.44,23.11,0000 0000 0000 0000 000000
2014-06-01 02:19:37,0.01,0.50,0.00,22.42,26.80,29.31,9.49,39.38,1005.87,2041.99,3278.57,3180.99,3460.02,499.86,492.27,23.16,0000 0000 0000 0000 000000
2014-06-01 02:24:38,0.01,0.50,0.00,22.44,26.80,29.29,9.58,39.34,1005.87,2041.99,3278.04,3180.93,3460.00,500.41,492.73,23.20,0000 0000 0000 0000 000000
2014-06-01 02:29:39,0.01,0.50,0.00,22.43,26.80,29.29,9.49,39.44,1005.87,2041.99,3278.00,3180.53,3459.99,500.24,492.74,23.24,0000 0000 0000 0000 000000
2014-06-01 02:34:40,0.04,0.50,0.00,22.43,26.80,29.30,9.51,39.42,1005.87,2041.99,3277.49,3180.05,3459.45,500.27,492.56,23.28,0000 0000 0000 0000 000000
2014-06-01 02:39:42,0.00,0.50,0.00,22.44,26.80,29.29,9.47,39.53,1005.87,2041.99,3277.01,3179.98,3459.01,499.59,492.00,23.32,0000 0000 0000 0000 000000
2014-06-01 02:44:43,0.00,0.50,0.00,22.43,26.80,29.29,9.52,39.53,1005.87,2041.99,3276.86,3179.89,3458.99,500.14,492.59,23.36,0000 0000 0000 0000 000000
2014-06-01 02:49:44,0.04,0.50,0.00,22.42,26.80,29.28,9.49,39.26,1005.88,2042.00,3276.15,3179.33,3458.78,500.12,492.41,23.41,0000 0000 0000 0000 000000
2014-06-01 02:54:45,0.02,0.51,0.00,22.42,26.80,29.28,9.49,39.27,1005.89,2042.00,3275.87,3179.01,3458.08,499.70,492.09,23.45,0000 0000 0000 0000 000000
2014-06-01 02:59:46,0.02,0.51,0.00,22.42,26.80,29.28,9.45,39.52,1005.88,2042.00,3275.07,3178.94,3457.97,500.15,492.63,23.49,0000 0000 0000 0000 000000
2014-06-01 03:04:47,0.02,0.51,0.00,22.44,26.80,29.28,9.53,39.47,1005.89,2042.00,3274.97,3178.51,3457.74,500.24,492.54,23.53,0000 0000 0000 0000 000000
2014-06-01 03:09:48,0.03,0.51,0.00,22.42,26.80,29.28,9.53,39.40,1005.91,2042.00,3274.59,3178.09,3457.21,499.58,492.02,23.57,0000 0000 0000 0000 000000
2014-06-01 03:14:49,0.01,0.51,0.00,22.42,26.80,29.29,9.49,39.38,1006.03,2042.00,3274.03,3178.00,3457.01,499.79,492.22,23.62,0000 0000 0000 0000 000000
2014-06-01 03:19:50,0.03,0.51,0.00,22.42,26.80,29.28,9.57,39.66,1006.09,2042.00,3273.46,3177.79,3456.78,499.87,492.39,23.66,0000 0000 0000 0000 000000
2014-06-01 03:24:51,0.04,0.51,0.00,22.43,26.80,29.28,9.45,39.42,1006.24,2042.00,3272.71,3177.08,3456.06,500.02,492.63,23.70,0000 0000 0000 0000 000000
2014-06-01 03:29:52,0.03,0.51,0.00,22.43,26.80,29.29,9.48,39.33,1006.33,2042.00,3271.98,3176.71,3455.59,500.28,492.85,23.74,0000 0000 0000 0000 000000
2014-06-01 03:34:53,0.04,0.52,0.00,22.43,26.80,29.29,9.49,39.35,1006.35,2042.00,3271.09,3176.04,3455.00,499.98,492.60,23.78,0000 0000 0000 0000 000000
2014-06-01 03:39:54,0.05,0.52,0.00,22.42,26.80,29.28,9.49,39.53,1006.36,2042.00,3270.18,3175.64,3454.28,499.77,492.40,23.82,0000 0000 0000 0000 000000
2014-06-01 03:44:55,0.03,0.52,0.00,22.42,26.80,29.28,9.53,39.43,1006.36,2042.00,3269.52,3175.02,3453.99,499.86,492.54,23.87,0000 0000 0000 0000 000000
2014-06-01 03:49:57,0.03,0.52,0.00,22.42,26.80,29.27,9.54,39.39,1006.37,2042.00,3268.84,3174.78,3453.41,500.17,492.88,23.91,0000 0000 0000 0000 000000
2014-06-01 03:54:58,0.03,0.52,0.00,22.42,26.80,29.29,9.50,39.33,1006.36,2042.00,3268.06,3174.05,3452.99,500.14,492.94,23.95,0000 0000 0000 0000 000000
2014-06-01 03:59:59,0.02,0.52,0.00,22.42,26.80,29.28,9.50,39.46,1006.37,2042.00,3267.65,3173.98,3452.43,500.14,492.78,23.99,0000 0000 0000 0000 000000
2014-06-01 04:05:00,0.04,0.53,0.00,22.43,26.80,29.29,9.49,39.32,1006.36,2042.01,3266.90,3173.25,3452.00,500.00,492.65,24.03,0000 0000 0000 0000 000000
2014-06-01 04:10:01,0.03,0.53,0.00,22.43,26.80,29.28,9.51,39.33,1006.40,2042.00,3266.10,3172.99,3451.42,500.02,492.61,24.08,0000 0000 0000 0000 000000
2014-06-01 04:15:02,0.04,0.53,0.00,22.44,26.80,29.29,9.54,39.24,1006.50,2042.01,3265.41,3172.54,3450.99,500.31,493.01,24.12,0000 0000 0000 0000 000000
2014-06-01 04:20:03,0.03,0.53,0.00,22.44,26.80,29.28,9.44,39.36,1006.65,2042.00,3264.72,3172.01,3450.32,499.74,492.39,24.16,0000 0000 0000 0000 000000
2014-06-01 04:25:04,0.03,0.53,0.00,22.44,26.80,29.29,9.57,39.26,1006.69,2042.00,3263.93,3171.65,3449.87,500.23,493.12,24.20,0000 0000 0000 0000 000000
2014-06-01 04:30:05,0.04,0.53,0.00,22.44,26.80,29.29,9.48,39.14,1006.64,2042.01,3263.12,3171.02,3449.10,499.83,492.59,24.24,0000 0000 0000 0000 000000
2014-06-01 04:35:06,0.05,0.54,0.00,22.45,26.80,29.27,9.49,39.10,1006.59,2042.00,3262.55,3170.55,3448.67,500.03,492.75,24.29,0000 0000 0000 0000 000000
2014-06-01 04:40:07,0.03,0.54,0.00,22.45,26.80,29.28,9.48,39.34,1006.57,2042.00,3261.45,3169.99,3448.00,499.58,492.36,24.33,0000 0000 0000 0000 000000
2014-06-01 04:45:09,0.05,0.54,0.00,22.44,26.80,29.29,9.54,39.36,1006.62,2042.00,3260.74,3169.33,3447.31,500.53,493.34,24.37,0000 0000 0000 0000 000000
2014-06-01 04:50:10,0.06,0.54,0.00,22.45,26.80,29.29,9.48,39.26,1006.66,2042.00,3259.63,3168.69,3446.53,500.16,492.84,24.41,0000 0000 0000 0000 000000
2014-06-01 04:55:11,0.03,0.54,0.00,22.46,26.81,29.29,9.44,39.31,1006.53,2042.00,3258.83,3168.04,3445.92,499.60,492.26,24.45,0000 0000 0000 0000 000000
2014-06-01 05:00:12,0.05,0.55,0.00,22.47,26.82,29.29,9.52,39.39,1006.61,2042.00,3257.94,3167.44,3445.08,500.20,492.91,24.50,0000 0000 0000 0000 000000
2014-06-01 05:05:14,0.03,0.55,0.00,22.47,26.82,29.29,9.48,39.27,1006.82,2042.00,3257.07,3166.97,3444.73,500.21,492.94,24.54,0000 0000 0000 0000 000000
2014-06-01 05:10:15,0.06,0.55,0.00,22.47,26.82,29.28,9.48,39.18,1006.85,2042.01,3256.10,3166.21,3444.01,500.06,492.79,24.58,0000 0000 0000 0000 000000
2014-06-01 05:15:16,0.05,0.55,0.00,22.47,26.82,29.29,9.53,39.34,1006.85,2042.01,3255.21,3165.75,3443.22,500.24,493.01,24.62,0000 0000 0000 0000 000000
2014-06-01 05:20:17,0.05,0.55,0.00,22.48,26.82,29.30,9.60,39.35,1006.85,2042.01,3254.09,3165.02,3442.36,500.31,493.15,24.66,0000 0000 0000 0000 000000
2014-06-01 05:25:18,0.04,0.56,0.00,22.49,26.82,29.29,9.50,39.21,1006.85,2042.00,3253.34,3164.44,3441.97,500.15,493.02,24.70,0000 0000 0000 0000 000000
2014-06-01 05:30:18,0.02,0.56,0.00,22.48,26.82,29.30,9.49,39.33,1006.85,2042.00,3252.83,3164.01,3441.26,499.84,492.62,24.75,0000 0000 0000 0000 000000
2014-06-01 05:35:20,0.02,0.56,0.00,22.49,26.82,29.31,9.54,39.52,1006.85,2042.00,3252.04,3163.79,3441.00,499.83,492.57,24.79,0000 0000 0000 0000 000000
2014-06-01 05:40:21,0.05,0.56,0.00,22.50,26.82,29.31,9.54,39.31,1006.86,2042.00,3251.48,3163.07,3440.41,500.36,493.15,24.83,0000 0000 0000 0000 000000
2014-06-01 05:45:22,0.00,0.56,0.00,22.51,26.82,29.30,9.47,39.27,1006.87,2042.00,3251.01,3163.00,3440.01,500.00,492.67,24.87,0000 0000 0000 0000 000000
2014-06-01 05:50:23,0.04,0.56,0.00,22.52,26.82,29.30,9.47,39.43,1006.86,2042.00,3250.48,3162.53,3439.86,500.06,492.66,24.91,0000 0000 0000 0000 000000
2014-06-01 05:55:24,0.02,0.56,0.00,22.52,26.82,29.30,9.52,39.44,1006.86,2042.00,3250.00,3162.03,3439.11,499.98,492.71,24.96,0000 0000 0000 0000 000000
2014-06-01 06:00:25,0.01,0.57,0.00,22.53,26.83,29.30,9.54,39.34,1006.87,2042.00,3249.55,3161.98,3439.00,500.22,492.86,25.00,0000 0000 0000 0000 000000
2014-06-01 06:05:26,0.02,0.57,0.00,22.54,26.84,29.30,9.48,39.46,1006.88,2042.00,3249.01,3161.74,3438.63,499.63,492.38,25.04,0000 0000 0000 0000 000000
2014-06-01 06:10:27,0.03,0.57,0.00,22.54,26.84,29.31,9.53,39.48,1006.87,2042.00,3248.80,3161.10,3438.04,500.46,493.29,25.08,0000 0000 0000 0000 000000
2014-06-01 06:15:28,0.02,0.57,0.00,22.54,26.85,29.31,9.51,39.35,1006.90,2042.00,3248.04,3160.99,3437.94,500.13,492.74,25.12,0000 0000 0000 0000 000000
2014-06-01 06:20:29,0.03,0.57,0.00,22.54,26.85,29.32,9.49,39.42,1006.93,2042.00,3247.67,3160.79,3437.30,499.86,492.61,25.16,0000 0000 0000 0000 000000
2014-06-01 06:25:30,0.02,0.57,0.00,22.56,26.85,29.32,9.50,39.22,1007.03,2042.00,3247.03,3160.10,3437.01,499.77,492.64,25.21,0000 0000 0000 0000 000000
2014-06-01 06:30:31,0.00,0.57,0.00,22.57,26.85,29.32,9.45,39.27,1007.00,2042.00,3246.88,3160.00,3436.95,499.98,492.79,25.25,0000 0000 0000 0000 000000
2014-06-01 06:35:33,0.03,0.57,0.00,22.58,26.85,29.33,9.51,39.51,1007.07,2042.00,3246.12,3159.98,3436.35,500.05,492.74,25.29,0000 0000 0000 0000 000000
2014-06-01 06:40:34,0.02,0.57,0.00,22.59,26.85,29.32,9.48,39.36,1007.18,2042.00,3245.91,3159.52,3436.01,500.02,492.81,25.33,0000 0000 0000 0000 000000
2014-06-01 06:45:35,0.03,0.58,0.00,22.59,26.86,29.32,9.47,39.22,1007.28,2042.00,3245.14,3159.01,3435.76,500.10,493.03,25.37,0000 0000 0000 0000 000000
2014-06-01 06:50:36,0.03,0.58,0.00,22.59,26.87,29.33,9.56,39.48,1007.34,2041.99,3244.54,3158.77,3435.04,500.15,492.97,25.42,0000 0000 0000 0000 000000
2014-06-01 06:55:37,0.05,0.58,0.00,22.60,26.87,29.33,9.49,39.38,1007.34,2041.99,3243.66,3158.04,3434.57,499.57,492.41,25.46,0000 0000 0000 0000 000000
2014-06-01 07:00:38,0.03,0.58,0.00,22.62,26.87,29.34,9.49,39.27,1007.34,2041.99,3242.88,3157.46,3433.97,499.90,492.71,25.50,0000 0000 0000 0000 000000
2014-06-01 07:05:39,0.04,0.58,0.00,22.62,26.87,29.34,9.50,39.30,1007.34,2041.99,3242.04,3157.01,3433.20,499.86,492.65,25.54,0000 0000 0000 0000 000000
2014-06-01 07:10:41,0.05,0.58,0.00,22.62,26.87,29.34,9.52,39.20,1007.34,2041.97,3241.21,3156.34,3432.81,499.97,492.68,25.58,0000 0000 0000 0000 000000
2014-06-01 07:15:42,0.03,0.59,0.00,22.62,26.89,29.35,9.47,39.31,1007.34,2041.97,3240.38,3155.99,3432.05,499.65,492.63,25.63,0000 0000 0000 0000 000000
2014-06-01 07:20:43,0.03,0.59,0.00,22.64,26.90,29.36,9.49,39.36,1007.34,2041.98,3239.95,3155.42,3431.82,499.94,492.57,25.67,0000 0000 0000 0000 000000
2014-06-01 07:25:44,0.04,0.59,0.00,22.64,26.90,29.36,9.46,39.15,1007.35,2041.98,3239.13,3155.01,3431.08,499.83,492.65,25.71,0000 0000 0000 0000 000000
2014-06-01 07:30:45,0.03,0.59,0.00,22.65,26.90,29.36,9.52,39.21,1007.35,2041.95,3238.48,3154.68,3430.75,500.16,492.86,25.75,0000 0000 0000 0000 000000
2014-06-01 07:35:46,0.03,0.59,0.00,22.65,26.90,29.37,9.51,39.36,1007.37,2041.95,3238.00,3154.04,3430.04,500.01,492.78,25.79,0000 0000 0000 0000 000000
2014-06-01 07:40:48,0.01,0.59,0.00,22.65,26.92,29.37,9.53,39.23,1007.37,2041.95,3237.37,3153.99,3429.99,500.15,492.90,25.84,0000 0000 0000 0000 000000
2014-06-01 07:45:49,0.03,0.59,0.00,22.66,26.92,29.38,9.56,39.17,1007.37,2041.96,3236.99,3153.74,3429.52,499.80,492.48,25.88,0000 0000 0000 0000 000000
2014-06-01 07:50:50,0.04,0.60,0.00,22.67,26.92,29.39,9.48,39.37,1007.39,2041.95,3236.39,3153.08,3429.00,500.29,493.00,25.92,0000 0000 0000 0000 000000
2014-06-01 07:55:51,0.03,0.60,0.00,22.67,26.92,29.40,9.47,39.33,1007.44,2041.93,3235.76,3152.85,3428.46,499.67,492.50,25.96,0000 0000 0000 0000 000000
2014-06-01 08:00:52,0.03,0.60,0.00,22.69,26.93,29.41,9.47,39.23,1007.59,2041.92,3235.04,3152.14,3428.00,500.11,492.98,26.00,0000 0000 0000 0000 000000
2014-06-01 08:05:54,0.04,0.60,0.00,22.69,26.94,29.41,9.57,39.44,1007.77,2041.78,3234.26,3151.66,3427.28,500.00,492.79,26.04,0000 0000 0000 0000 000000
2014-06-01 08:10:55,0.02,0.60,0.00,22.68,26.95,29.41,9.52,39.44,1007.80,2041.60,3233.49,3151.02,3426.88,500.50,493.33,26.09,0000 0000 0000 0000 000000
2014-06-01 08:15:56,0.01,0.60,0.00,22.69,26.95,29.42,9.47,39.27,1007.82,2041.42,3232.93,3150.73,3426.08,499.71,492.62,26.13,0000 0000 0000 0000 000000
2014-06-01 08:20:57,0.03,0.60,0.00,22.69,26.95,29.42,9.55,39.33,1007.83,2041.31,3232.11,3150.06,3425.85,500.26,493.18,26.17,0000 0000 0000 0000 000000
2014-06-01 08:25:58,0.04,0.60,0.00,22.71,26.95,29.42,9.59,39.52,1007.83,2041.39,3231.48,3149.85,3425.07,500.22,493.25,26.21,0000 0000 0000 0000 000000
2014-06-01 08:30:59,0.03,0.61,0.00,22.71,26.96,29.42,9.53,39.44,1007.83,2041.34,3230.80,3149.11,3424.75,500.32,493.04,26.25,0000 0000 0000 0000 000000
2014-06-01 08:36:00,0.02,0.61,0.00,22.70,26.97,29.44,9.49,39.11,1007.84,2041.25,3230.03,3148.97,3424.04,500.08,492.99,26.30,0000 0000 0000 0000 000000
2014-06-01 08:41:02,0.03,0.61,0.00,22.70,26.97,29.44,9.48,39.23,1007.88,2041.12,3229.59,3148.37,3423.91,500.40,493.28,26.34,0000 0000 0000 0000 000000
2014-06-01 08:46:03,0.02,0.61,0.00,22.70,26.97,29.45,9.46,39.41,1007.91,2041.07,3229.01,3148.01,3423.24,499.88,492.87,26.38,0000 0000 0000 0000 000000
2014-06-01 08:51:04,0.01,0.61,0.00,22.71,26.97,29.45,9.53,39.38,1008.03,2041.05,3228.70,3147.97,3423.00,500.31,493.15,26.42,0000 0000 0000 0000 000000
2014-06-01 08:56:05,0.06,0.61,0.00,22.71,26.97,29.45,9.54,39.37,1008.15,2041.05,3227.83,3147.17,3422.40,499.80,492.83,26.46,0000 0000 0000 0000 000000
2014-06-01 09:01:06,0.03,0.61,0.00,22.71,26.98,29.46,9.51,39.19,1008.30,2041.03,3226.97,3146.78,3421.83,500.24,493.35,26.51,0000 0000 0000 0000 000000
2014-06-01 09:06:07,0.05,0.62,0.00,22.72,26.99,29.47,9.50,39.28,1008.31,2041.04,3226.07,3146.02,3421.04,499.84,493.07,26.55,0000 0000 0000 0000 000000
2014-06-01 09:11:08,0.06,0.62,0.00,22.72,27.00,29.47,9.53,39.28,1008.32,2041.05,3225.14,3145.37,3420.40,500.00,493.18,26.59,0000 0000 0000 0000 000000
2014-06-01 09:16:09,0.09,0.62,0.00,22.72,27.00,29.47,9.54,39.34,1008.33,2041.02,3223.44,3144.12,3418.98,500.36,493.34,26.63,0000 0000 0000 0000 000000
2014-06-01 09:21:11,0.06,0.62,0.00,22.72,27.00,29.48,9.47,39.21,1008.34,2041.02,3222.06,3143.04,3417.97,500.10,493.22,26.67,0000 0000 0000 0000 000000
2014-06-01 09:26:12,0.06,0.63,0.00,22.72,27.00,29.48,9.46,39.40,1008.39,2041.02,3221.13,3142.37,3417.13,499.78,493.05,26.72,0000 0000 0000 0000 000000
2014-06-01 09:31:13,0.05,0.63,0.00,22.72,27.00,29.48,9.52,39.34,1008.59,2041.01,3220.40,3141.77,3416.59,500.18,493.28,26.76,0000 0000 0000 0000 000000
2014-06-01 09:36:14,0.05,0.63,0.00,22.73,27.00,29.48,9.49,39.12,1008.73,2041.00,3219.09,3141.01,3415.68,499.85,493.37,26.80,0000 0000 0000 0000 000000
2014-06-01 09:41:15,0.08,0.63,0.00,22.72,27.01,29.49,9.54,39.18,1008.75,2041.01,3217.89,3140.10,3414.66,499.84,493.23,26.84,0000 0000 0000 0000 000000
2014-06-01 09:46:16,0.07,0.64,0.00,22.72,27.02,29.49,9.51,39.35,1008.79,2041.00,3216.58,3139.00,3413.61,499.77,493.00,26.88,0000 0000 0000 0000 000000
2014-06-01 09:51:18,0.12,0.64,0.00,22.72,27.02,29.49,9.54,39.44,1008.80,2041.00,3214.56,3137.53,3412.10,499.81,493.08,26.92,0000 0000 0000 0000 000000
2014-06-01 09:56:18,0.03,0.64,0.00,22.72,27.02,29.50,9.50,39.38,1008.80,2041.00,3213.66,3136.99,3411.22,499.76,493.08,26.97,0000 0000 0000 0000 000000
2014-06-01 10:01:19,0.06,0.65,0.00,22.72,27.02,29.50,9.54,39.17,1008.80,2041.00,3212.68,3136.19,3410.49,500.19,493.54,27.01,0000 0000 0000 0000 000000
2014-06-01 10:06:20,0.05,0.65,0.00,22.73,27.02,29.49,9.55,39.28,1008.82,2041.00,3211.67,3135.49,3409.77,500.14,493.49,27.05,0000 0000 0000 0000 000000
2014-06-01 10:11:22,0.07,0.65,0.00,22.73,27.02,29.50,9.50,39.19,1008.82,2041.00,3210.40,3134.65,3408.67,500.08,493.37,27.09,0000 0000 0000 0000 000000
2014-06-01 10:16:23,0.12,0.66,0.00,22.74,27.03,29.50,9.49,39.28,1008.84,2041.00,3208.42,3133.15,3407.14,499.85,493.09,27.13,0000 0000 0000 0000 000000
2014-06-01 10:21:24,0.89,0.68,0.00,22.74,27.03,29.51,9.46,39.01,1008.86,2041.00,3198.18,3124.58,3398.19,499.87,493.27,27.18,0000 0000 0000 0000 000000
2014-06-01 10:26:25,0.41,0.71,0.00,22.74,27.04,29.50,9.54,39.10,1008.95,2041.00,3187.89,3116.16,3389.55,500.31,493.50,27.22,0000 0000 0000 0000 000000
2014-06-01 10:31:27,0.11,0.72,0.00,22.74,27.05,29.51,9.47,39.11,1009.15,2040.99,3185.27,3114.08,3387.43,499.79,493.21,27.26,0000 0000 0000 0000 000000
2014-06-01 10:36:28,0.11,0.72,0.00,22.74,27.05,29.52,9.46,39.23,1009.19,2040.98,3183.38,3112.68,3385.89,500.21,493.84,27.30,0000 0000 0000 0000 000000
2014-06-01 10:41:29,0.09,0.73,0.00,22.74,27.05,29.51,9.51,39.41,1009.27,2040.99,3181.67,3111.61,3384.72,499.78,493.30,27.34,0000 0000 0000 0000 000000
2014-06-01 10:46:30,1.06,0.75,0.00,22.75,27.05,29.52,9.53,39.13,1009.28,2040.99,3170.76,3102.82,3375.57,500.31,493.60,27.38,0000 0000 0000 0000 000000
2014-06-01 10:51:31,0.44,0.79,0.00,22.74,27.05,29.51,9.52,39.33,1009.29,2040.99,3158.15,3092.78,3365.15,500.09,493.59,27.43,0000 0000 0000 0000 000000
2014-06-01 10:56:32,0.15,0.80,0.00,22.75,27.05,29.53,9.52,39.36,1009.29,2040.97,3154.63,3090.18,3362.30,500.42,493.91,27.47,0000 0000 0000 0000 000000
2014-06-01 11:01:33,0.04,0.80,0.00,22.75,27.05,29.52,9.56,39.33,1009.29,2040.98,3153.79,3089.58,3361.81,499.87,493.40,27.51,0000 0000 0000 0000 000000
2014-06-01 11:06:34,0.10,0.80,0.00,22.74,27.05,29.53,9.47,39.17,1009.29,2040.98,3152.18,3088.46,3360.56,500.07,493.67,27.55,0000 0000 0000 0000 000000
2014-06-01 11:11:35,0.12,0.81,0.00,22.74,27.05,29.52,9.52,39.15,1009.30,2040.97,3150.15,3086.98,3358.96,499.61,493.09,27.59,0000 0000 0000 0000 000000
2014-06-01 11:16:36,0.06,0.81,0.00,22.74,27.05,29.53,9.56,39.34,1009.31,2040.96,3148.50,3085.95,3357.88,500.17,493.75,27.64,0000 0000 0000 0000 000000
2014-06-01 11:21:37,0.05,0.81,0.00,22.74,27.06,29.53,9.55,39.40,1009.33,2040.97,3147.71,3085.17,3357.05,500.16,493.85,27.68,0000 0000 0000 0000 000000
2014-06-01 11:26:39,0.07,0.82,0.00,22.74,27.06,29.53,9.47,39.33,1009.33,2040.98,3146.45,3084.49,3356.17,499.64,493.13,27.72,0000 0000 0000 0000 000000
2014-06-01 11:31:40,0.07,0.82,0.00,22.74,27.06,29.53,9.56,39.28,1009.33,2040.97,3145.17,3083.55,3355.32,500.31,493.77,27.76,0000 0000 0000 0000 000000
2014-06-01 11:36:41,0.04,0.82,0.00,22.74,27.07,29.54,9.50,38.95,1009.34,2040.99,3144.06,3083.01,3354.68,500.02,493.55,27.80,0000 0000 0000 0000 000000
2014-06-01 11:41:42,0.05,0.82,0.00,22.74,27.07,29.53,9.56,39.21,1009.41,2040.96,3143.10,3082.22,3353.95,500.13,493.74,27.85,0000 0000 0000 0000 000000
2014-06-01 11:46:43,0.04,0.83,0.00,22.74,27.07,29.54,9.51,39.17,1009.40,2040.96,3142.23,3081.90,3353.14,499.99,493.62,27.89,0000 0000 0000 0000 000000
2014-06-01 11:51:45,0.05,0.83,0.00,22.74,27.07,29.53,9.56,39.34,1009.44,2040.97,3141.48,3081.13,3352.77,499.75,493.34,27.93,0000 0000 0000 0000 000000
2014-06-01 11:56:46,0.05,0.83,0.00,22.74,27.07,29.54,9.52,39.34,1009.41,2040.94,3140.40,3080.55,3351.99,500.03,493.67,27.97,0000 0000 0000 0000 000000
2014-06-01 12:01:47,0.05,0.83,0.00,22.74,27.07,29.54,9.61,39.41,1009.50,2040.95,3139.36,3079.94,3351.15,500.42,494.01,28.01,0000 0000 0000 0000 000000
2014-06-01 12:06:48,0.05,0.83,0.00,22.74,27.07,29.54,9.47,39.39,1009.58,2040.96,3138.40,3079.15,3350.74,499.60,493.30,28.05,0000 0000 0000 0000 000000
2014-06-01 12:11:49,0.01,0.84,0.00,22.74,27.07,29.54,9.53,39.45,1009.51,2040.95,3137.87,3078.99,3350.05,500.44,494.19,28.10,0000 0000 0000 0000 000000
2014-06-01 12:16:50,0.07,0.84,0.00,22.74,27.07,29.55,9.55,39.28,1009.45,2040.93,3136.68,3078.22,3349.42,500.21,493.88,28.14,0000 0000 0000 0000 000000
2014-06-01 12:21:51,0.05,0.84,0.00,22.74,27.07,29.55,9.53,39.42,1009.56,2040.93,3135.69,3077.57,3348.79,500.12,493.98,28.18,0000 0000 0000 0000 000000
2014-06-01 12:26:53,0.04,0.84,0.00,22.74,27.07,29.54,9.48,39.30,1009.68,2040.95,3134.81,3076.90,3347.99,499.86,493.62,28.22,0000 0000 0000 0000 000000
2014-06-01 12:31:53,0.07,0.85,0.00,22.74,27.07,29.54,9.50,39.17,1009.74,2040.93,3133.50,3075.95,3347.03,500.18,494.00,28.26,0000 0000 0000 0000 000000
2014-06-01 12:36:55,0.07,0.85,0.00,22.74,27.07,29.54,9.51,39.27,1009.76,2040.94,3132.52,3075.07,3346.12,500.09,493.90,28.31,0000 0000 0000 0000 000000
2014-06-01 12:41:56,0.06,0.85,0.00,22.74,27.07,29.54,9.56,39.53,1009.77,2040.95,3131.42,3074.28,3345.21,499.76,493.60,28.35,0000 0000 0000 0000 000000
2014-06-01 12:46:57,0.02,0.85,0.00,22.74,27.07,29.55,9.56,39.41,1009.78,2040.95,3130.59,3073.97,3344.91,500.01,493.85,28.39,0000 0000 0000 0000 000000
2014-06-01 12:51:58,0.05,0.86,0.00,22.74,27.07,29.54,9.53,39.28,1009.78,2040.84,3129.67,3073.17,3344.11,499.96,493.72,28.43,0000 0000 0000 0000 000000
2014-06-01 12:56:59,0.05,0.86,0.00,22.72,27.07,29.54,9.49,39.32,1009.79,2040.86,3128.90,3072.62,3343.35,500.08,493.90,28.47,0000 0000 0000 0000 000000
2014-06-01 13:02:00,0.01,0.86,0.00,22.72,27.07,29.54,9.42,39.31,1009.79,2040.76,3128.07,3072.02,3343.00,499.69,493.52,28.52,0000 0000 0000 0000 000000